Regional Weather Roundup
Issued by NWS

Home | Current Version | Previous Version | Text Only | Print | Product List | Glossary Off
Versions: 1 2 3 4 5 6 7 8 9 10 11 12 13 14 15 16 17 18 19 20 21 22 23 24 25 26 27 28 29 30 31 32 33 34 35 36 37 38 39 40 41 42 43 44 45 46 47 48 49 50

000
ASUS43 KBIS 300310
RWRND

NORTH DAKOTA REGIONAL WEATHER ROUNDUP
NATIONAL WEATHER SERVICE BISMARCK ND
900 PM CST THU JAN 29 2015

NOTE: "FAIR" INDICATES FEW OR NO CLOUDS BELOW 12,000 FEET WITH NO
SIGNIFICANT WEATHER AND/OR OBSTRUCTIONS TO VISIBILITY.


NDZ001>003-009>011-017-300400-
NORTHWEST NORTH DAKOTA

CITY           SKY/WX    TMP DP  RH WIND       PRES   REMARKS
WILLISTON      CLEAR     26  20  77 SE5       30.32F
MINOT          CLEAR     12   8  84 E5        30.40F WCI   4
MINOT AFB      CLEAR     10  10  98 SE9       30.40F WCI  -2
$$

NDZ018>021-031>035-040>046-300400-
SOUTHWEST NORTH DAKOTA

CITY           SKY/WX    TMP DP  RH WIND       PRES   REMARKS
BISMARCK       CLEAR     18  15  88 SE8       30.47S WCI   8
DICKINSON      CLEAR     25  19  78 SE13      30.32F WCI  14
GARRISON         N/A     18  15  88 SE8       30.40F WCI   8
HETTINGER ARPT CLEAR     27  16  63 SE7       30.36F WCI  19
$$

NDZ004>008-012>016-024-026-027-054-300400-
NORTHEAST NORTH DAKOTA

CITY           SKY/WX    TMP DP  RH WIND       PRES   REMARKS
GRAND FORKS    PTCLDY     6   0  76 N3        30.58S
GRND FRKS AFB  PTCLDY     4  -1  79 N1        30.58S
DEVILS LAKE    CLOUDY     9   1  72 E3        30.49F
$$

NDZ022-023-025-028>030-036>039-047>053-300400-
SOUTHEAST NORTH DAKOTA

CITY           SKY/WX    TMP DP  RH WIND       PRES   REMARKS
FARGO          PTCLDY     9   2  73 N7        30.58R WCI  -2
JAMESTOWN      CLOUDY    17  10  74 CALM      30.50S
$$




USA.gov is the U.S. government's official web portal to all federal, state and local government web resources and services.